Chipley, FL

2:30 PM CDT on June 25, 2017 (GMT -0500)
Chipley

Weather History for KVSH - January, 2014

Change the Weather History Date:

Monday, January 6, 2014

  Actual Average (KDHN) Record (KDHN)
Temperature  
Mean Temperature 34 °F -  
Max Temperature 41 °F 61 °F 78 °F (1950)
Min Temperature 28 °F 37 °F 20 °F (2014)
Degree Days  
Heating Degree Days 30    
Moisture  
Dew Point 14 °F    
Average Humidity 46    
Maximum Humidity 65    
Minimum Humidity 28    
Precipitation  
Precipitation 0.02 in - - ()
Sea Level Pressure  
Sea Level Pressure 30.46 in    
Wind  
Wind Speed 11 mph (NNW)    
Max Wind Speed 17 mph    
Max Gust Speed 31 mph    
Visibility 10 miles    
Events      
Averages and records for this station are not official NWS values.
T = Trace of Precipitation, MM = Missing Value Source: NWS Daily Summary

Daily Weather History Graph

Daily Weather History Graph

Search for Another Location

Airport or City:

Trip Planner

Search our weather history database for the weather conditions in past years. The results will help you decide how hot, cold, wet, or windy it might be!

Date:

Astronomy

Jan. 06, 2014 Rise Set
Actual Time 6:40 AM CST 4:55 PM CST
Civil Twilight 6:14 AM CST 5:22 PM CST
Nautical Twilight 5:44 AM CST 5:52 PM CST
Astronomical Twilight 5:15 AM CST 6:21 PM CST
Moon 10:21 AM CST (1/6) 11:00 PM CST (1/6)
Length of Visible Light 11h 07m
Length of Day
10h 14m
Waxing Crescent, 35% of the Moon is Illuminated
Jan 6
Waxing Crescent
Jan 7
First Quarter
Jan 15
Full
Jan 23
Last Quarter
Jan 30
New

Hourly Weather History & Observations

Time (CST) Temp. Windchill Dew Point Humidity Pressure Visibility Wind Dir Wind Speed Gust Speed Precip Events Conditions
12:15 AM 41.0 °F 34.3 °F 28.4 °F 61% 30.15 in 10.0 mi NNW 11.5 mph 26.5 mph N/A   Overcast
12:35 AM 39.2 °F 30.8 °F 28.4 °F 65% 30.16 in 10.0 mi NNW 15.0 mph 27.6 mph N/A   Overcast
12:55 AM 39.2 °F 33.0 °F 26.6 °F 61% 30.18 in 10.0 mi NW 9.2 mph 20.7 mph N/A   Overcast
1:15 AM 37.4 °F 28.5 °F 26.6 °F 65% 30.19 in 10.0 mi North 15.0 mph 24.2 mph N/A   Overcast
1:35 AM 37.4 °F 30.3 °F 26.6 °F 65% 30.20 in 10.0 mi North 10.4 mph 21.9 mph N/A   Overcast
1:55 AM 37.4 °F 31.4 °F 26.6 °F 65% 30.22 in 10.0 mi North 8.1 mph 24.2 mph N/A   Overcast
2:15 AM 35.6 °F 27.1 °F 24.8 °F 65% 30.24 in 10.0 mi NNW 12.7 mph 25.3 mph N/A   Overcast
2:35 AM 35.6 °F 26.2 °F 23.0 °F 60% 30.25 in 10.0 mi North 15.0 mph 26.5 mph N/A   Overcast
2:55 AM 35.6 °F 25.9 °F 23.0 °F 60% 30.26 in 10.0 mi North 16.1 mph 31.1 mph N/A   Overcast
3:15 AM 35.6 °F 25.5 °F 21.2 °F 56% 30.27 in 10.0 mi NNW 17.3 mph 23.0 mph N/A   Overcast
3:35 AM 35.6 °F 25.9 °F 21.2 °F 56% 30.28 in 10.0 mi North 16.1 mph 26.5 mph N/A   Overcast
3:55 AM 35.6 °F 26.2 °F 21.2 °F 56% 30.29 in 10.0 mi North 15.0 mph 31.1 mph N/A   Overcast
4:15 AM 35.6 °F 26.2 °F 21.2 °F 56% 30.31 in 10.0 mi North 15.0 mph 24.2 mph N/A   Overcast
4:35 AM 33.8 °F 24.3 °F 21.2 °F 60% 30.32 in 10.0 mi NNW 13.8 mph 25.3 mph N/A   Overcast
4:55 AM 33.8 °F 27.0 °F 21.2 °F 60% 30.33 in 10.0 mi NNW 8.1 mph 24.2 mph N/A   Overcast
5:15 AM 33.8 °F 25.8 °F 21.2 °F 60% 30.33 in 10.0 mi North 10.4 mph 21.9 mph N/A   Overcast
5:35 AM 33.8 °F 25.3 °F 21.2 °F 60% 30.34 in 10.0 mi North 11.5 mph 21.9 mph N/A   Overcast
5:55 AM 33.8 °F 25.8 °F 19.4 °F 56% 30.35 in 10.0 mi North 10.4 mph 20.7 mph N/A   Scattered Clouds
6:15 AM 32.0 °F 23.0 °F 19.4 °F 60% 30.37 in 10.0 mi North 11.5 mph 19.6 mph N/A   Clear
6:35 AM 32.0 °F 21.6 °F 19.4 °F 60% 30.38 in 10.0 mi North 15.0 mph 21.9 mph N/A   Scattered Clouds
6:55 AM 32.0 °F 23.0 °F 19.4 °F 60% 30.39 in 10.0 mi North 11.5 mph 17.3 mph N/A   Partly Cloudy
7:15 AM 32.0 °F 22.5 °F 19.4 °F 60% 30.40 in 10.0 mi North 12.7 mph 21.9 mph N/A   Partly Cloudy
7:35 AM 32.0 °F 24.8 °F 19.4 °F 60% 30.42 in 10.0 mi North 8.1 mph 17.3 mph N/A   Partly Cloudy
7:55 AM 32.0 °F 24.8 °F 19.4 °F 60% 30.44 in 10.0 mi North 8.1 mph 21.9 mph N/A   Partly Cloudy
8:15 AM 32.0 °F 22.5 °F 17.6 °F 55% 30.46 in 10.0 mi North 12.7 mph 21.9 mph N/A   Mostly Cloudy
8:35 AM 30.2 °F 21.3 °F 17.6 °F 60% 30.47 in 10.0 mi North 10.4 mph 24.2 mph N/A   Mostly Cloudy
8:55 AM 30.2 °F 21.3 °F 17.6 °F 60% 30.48 in 10.0 mi North 10.4 mph 20.7 mph N/A   Scattered Clouds
9:15 AM 32.0 °F 24.2 °F 17.6 °F 55% 30.49 in 10.0 mi North 9.2 mph 20.7 mph N/A   Partly Cloudy
9:35 AM 32.0 °F 22.1 °F 17.6 °F 55% 30.51 in 10.0 mi NNW 13.8 mph 24.2 mph N/A   Clear
9:55 AM 33.8 °F 25.3 °F 15.8 °F 48% 30.52 in 10.0 mi North 11.5 mph 26.5 mph N/A   Clear
10:15 AM 33.8 °F 24.3 °F 15.8 °F 48% 30.52 in 10.0 mi NNW 13.8 mph 26.5 mph N/A   Clear
10:35 AM 33.8 °F 23.9 °F 15.8 °F 48% 30.52 in 10.0 mi North 15.0 mph 23.0 mph N/A   Clear
10:55 AM 32.0 °F 24.2 °F 14.0 °F 48% 30.52 in 10.0 mi North 9.2 mph 25.3 mph N/A   Clear
11:15 AM 32.0 °F 24.2 °F 12.2 °F 44% 30.51 in 10.0 mi North 9.2 mph 20.7 mph N/A   Clear
11:35 AM 33.8 °F 23.9 °F 12.2 °F 41% 30.51 in 10.0 mi North 15.0 mph 24.2 mph N/A   Clear
11:55 AM 33.8 °F 27.0 °F 12.2 °F 41% 30.50 in 10.0 mi North 8.1 mph 19.6 mph N/A   Clear
12:15 PM 33.8 °F 26.4 °F 10.4 °F 38% 30.51 in 10.0 mi North 9.2 mph 21.9 mph N/A   Clear
12:35 PM 33.8 °F 26.4 °F 12.2 °F 41% 30.50 in 10.0 mi NNW 9.2 mph 18.4 mph N/A   Clear
12:55 PM 33.8 °F 24.8 °F 12.2 °F 41% 30.49 in 10.0 mi NNW 12.7 mph 18.4 mph N/A   Clear
1:15 PM 35.6 °F 27.5 °F 10.4 °F 35% 30.49 in 10.0 mi NNW 11.5 mph 20.7 mph N/A   Clear
1:35 PM 35.6 °F 27.1 °F 12.2 °F 38% 30.48 in 10.0 mi NW 12.7 mph 20.7 mph N/A   Clear
1:55 PM 35.6 °F 27.5 °F 10.4 °F 35% 30.48 in 10.0 mi North 11.5 mph 18.4 mph N/A   Clear
2:15 PM 35.6 °F 28.6 °F 12.2 °F 38% 30.49 in 10.0 mi NNW 9.2 mph 18.4 mph N/A   Clear
2:35 PM 35.6 °F 30.7 °F 10.4 °F 35% 30.49 in 10.0 mi NNW 5.8 mph - N/A   Clear
2:55 PM 35.6 °F 28.0 °F 10.4 °F 35% 30.49 in 10.0 mi WNW 10.4 mph - N/A   Clear
3:15 PM 35.6 °F 28.6 °F 10.4 °F 35% 30.50 in 10.0 mi NNW 9.2 mph - N/A   Clear
3:35 PM 35.6 °F 27.5 °F 10.4 °F 35% 30.51 in 10.0 mi NNW 11.5 mph 18.4 mph N/A   Clear
3:55 PM 35.6 °F 26.6 °F 8.6 °F 33% 30.52 in 10.0 mi North 13.8 mph - N/A   Clear
4:15 PM 35.6 °F 28.6 °F 8.6 °F 33% 30.52 in 10.0 mi NW 9.2 mph 17.3 mph N/A   Clear
4:35 PM 35.6 °F 28.6 °F 8.6 °F 33% 30.52 in 10.0 mi NW 9.2 mph - N/A   Clear
4:55 PM 33.8 °F 27.0 °F 6.8 °F 32% 30.52 in 10.0 mi NNW 8.1 mph 16.1 mph N/A   Clear
5:15 PM 33.8 °F 25.3 °F 5.0 °F 30% 30.53 in 10.0 mi North 11.5 mph 20.7 mph N/A   Clear
5:35 PM 33.8 °F 24.8 °F 3.2 °F 28% 30.53 in 10.0 mi NNW 12.7 mph 18.4 mph N/A   Clear
5:55 PM 33.8 °F 27.0 °F 5.0 °F 30% 30.54 in 10.0 mi North 8.1 mph 18.4 mph N/A   Clear
6:15 PM 33.8 °F 27.0 °F 5.0 °F 30% 30.56 in 10.0 mi North 8.1 mph 17.3 mph N/A   Clear
6:35 PM 32.0 °F 24.8 °F 6.8 °F 35% 30.57 in 10.0 mi NNW 8.1 mph - N/A   Clear
6:55 PM 30.2 °F 22.6 °F 3.2 °F 32% 30.58 in 10.0 mi NW 8.1 mph 16.1 mph N/A   Clear
7:15 PM 30.2 °F 23.4 °F 3.2 °F 32% 30.59 in 10.0 mi NW 6.9 mph 19.6 mph N/A   Clear
7:35 PM 30.2 °F 21.9 °F 3.2 °F 32% 30.60 in 10.0 mi NNW 9.2 mph 18.4 mph N/A   Clear
7:55 PM 30.2 °F 23.4 °F 5.0 °F 34% 30.60 in 10.0 mi NW 6.9 mph 19.6 mph N/A   Clear
8:15 PM 30.2 °F 23.4 °F 3.2 °F 32% 30.60 in 10.0 mi NNW 6.9 mph - N/A   Clear
8:35 PM 30.2 °F 22.6 °F 3.2 °F 32% 30.61 in 10.0 mi North 8.1 mph - N/A   Clear
8:55 PM 30.2 °F 23.4 °F 3.2 °F 32% 30.61 in 10.0 mi North 6.9 mph - N/A   Clear
9:15 PM 30.2 °F 21.9 °F 5.0 °F 34% 30.62 in 10.0 mi North 9.2 mph - N/A   Clear
9:35 PM 28.4 °F 19.7 °F 5.0 °F 37% 30.62 in 10.0 mi North 9.2 mph - N/A   Clear
9:55 PM 28.4 °F 21.2 °F 5.0 °F 37% 30.62 in 10.0 mi North 6.9 mph - N/A   Clear
10:15 PM 28.4 °F 20.4 °F 5.0 °F 37% 30.62 in 10.0 mi North 8.1 mph - N/A   Clear
10:35 PM 28.4 °F 19.7 °F 6.8 °F 40% 30.62 in 10.0 mi NNW 9.2 mph - N/A   Clear
10:55 PM 28.4 °F 23.3 °F 6.8 °F 40% 30.62 in 10.0 mi NNW 4.6 mph - N/A   Clear
11:15 PM 28.4 °F 21.2 °F 6.8 °F 40% 30.62 in 10.0 mi NNW 6.9 mph - N/A   Clear
11:35 PM 28.4 °F 20.4 °F 5.0 °F 37% 30.62 in 10.0 mi North 8.1 mph - N/A   Clear
11:55 PM 28.4 °F 20.4 °F 5.0 °F 37% 30.61 in 10.0 mi North 8.1 mph - N/A   Clear